Tracking 32412 objects as of 6-Dec-2025
HD Live streaming from Space Station
objects crossing your sky now

STARLINK-5828

Track STARLINK-5828 now!
10-day predictions
STARLINK-5828 is classified as:


NORAD ID: 57070
Int'l Code: 2023-088Y
Perigee: 565.5 km
Apogee: 566.9 km
Inclination: 43.0 °
Period: 95.8 minutes
Semi major axis: 6937 km
RCS: Unknown
Launch date: June 22, 2023
Source: United States (US)
Launch site: AIR FORCE WESTERN TEST RANGE (AFWTR)
Your satellite tracking list
Your tracking list is empty




NASA's NSSDC Master Catalog

Two Line Element Set (TLE):
1 57070U 23088Y   25339.16007712  .00000528  00000-0  54172-4 0  9994
2 57070  43.0026 248.6604 0001002 270.7072  89.3655 15.02544867136293
Source of the keplerian elements: AFSPC